Weather History for Cambridge, MD

Change the Weather History Date:

Monday, March 11, 2013

  Actual Average (KESN) Record (KESN)
Temperature  
Mean Temperature 47 °F -  
Max Temperature 59 °F 55 °F 74 °F (1967)
Min Temperature 35 °F 35 °F 2 °F (1960)
Degree Days  
Heating Degree Days 18    
Moisture  
Dew Point 42 °F    
Average Humidity 81    
Maximum Humidity 100    
Minimum Humidity 63    
Precipitation  
Precipitation 0.00 in - - ()
Sea Level Pressure  
Sea Level Pressure 30.16 in    
Wind  
Wind Speed 7 mph (SSE)    
Max Wind Speed 17 mph    
Max Gust Speed 25 mph    
Visibility 8 miles    
Events      
Averages and records for this station are not official NWS values.
T = Trace of Precipitation, MM = Missing Value Source: NWS Daily Summary

Daily Weather History Graph

Daily Weather History Graph

Search for Another Location

Airport:

Trip Planner

Search our weather history database for the weather conditions in past years. The results will help you decide how hot, cold, wet, or windy it might be!

Date:

Astronomy

Mar. 11, 2013 Rise Set
Actual Time 7:21 AM EDT 7:07 PM EDT
Civil Twilight 6:54 AM EDT 7:33 PM EDT
Nautical Twilight 6:24 AM EDT 8:04 PM EDT
Astronomical Twilight 5:53 AM EDT 8:35 PM EDT
Moon 6:53 AM EDT (3/11) 7:16 PM EDT (3/11)
Length of Visible Light 12h 39m
Length of Day
11h 46m
Waning Crescent, 0% of the Moon is Illuminated
Mar 11
Waning Crescent
Mar 11
New
Mar 19
First Quarter
Mar 27
Full
Apr 3
Last Quarter

Hourly Weather History & Observations

Time (EDT) Temp. Windchill Dew Point Humidity Pressure Visibility Wind Dir Wind Speed Gust Speed Precip Events Conditions
12:18 AM 39.2 °F 34.2 °F 35.6 °F 87% 30.28 in 10.0 mi SE 6.9 mph - N/A   Overcast
12:38 AM 39.2 °F 34.2 °F 35.6 °F 87% 30.28 in 10.0 mi SE 6.9 mph - N/A   Overcast
12:58 AM 39.2 °F 34.2 °F 37.4 °F 93% 30.27 in 7.0 mi SE 6.9 mph - N/A   Overcast
1:18 AM 39.2 °F 33.6 °F 37.4 °F 93% 30.27 in 5.0 mi SE 8.1 mph - N/A   Overcast
1:38 AM 39.2 °F 35.0 °F 37.4 °F 93% 30.27 in 5.0 mi SSE 5.8 mph - N/A   Overcast
1:58 AM 39.2 °F 35.9 °F 37.4 °F 93% 30.27 in 5.0 mi SSE 4.6 mph - N/A   Overcast
2:18 AM 39.2 °F 35.0 °F 37.4 °F 93% 30.26 in 4.0 mi SE 5.8 mph - N/A   Overcast
2:38 AM 39.2 °F 34.2 °F 37.4 °F 93% 30.25 in 5.0 mi SE 6.9 mph - N/A   Overcast
2:58 AM 39.2 °F 35.0 °F 37.4 °F 93% 30.25 in 5.0 mi SE 5.8 mph - N/A   Overcast
3:18 AM 39.2 °F 34.2 °F 37.4 °F 93% 30.24 in 5.0 mi SE 6.9 mph - N/A   Overcast
3:39 AM 37.4 °F 32.8 °F 35.6 °F 93% 30.23 in 5.0 mi ESE 5.8 mph - N/A   Overcast
3:59 AM 37.4 °F 34.9 °F 37.4 °F 100% 30.23 in 7.0 mi SSE 3.5 mph - N/A   Overcast
4:19 AM 37.4 °F 34.9 °F 35.6 °F 93% 30.23 in 5.0 mi SE 3.5 mph - N/A   Overcast
4:39 AM 39.2 °F 35.0 °F 37.4 °F 93% 30.21 in 7.0 mi SE 5.8 mph - N/A   Overcast
4:59 AM 37.4 °F 33.8 °F 35.6 °F 93% 30.21 in 7.0 mi SSE 4.6 mph - N/A   Overcast
5:19 AM 37.4 °F 34.9 °F 37.4 °F 100% 30.21 in 5.0 mi SE 3.5 mph - N/A   Overcast
5:39 AM 39.2 °F - 37.4 °F 93% 30.21 in 5.0 mi Calm Calm - N/A   Overcast
5:59 AM 37.4 °F 33.8 °F 37.4 °F 100% 30.21 in 3.0 mi SE 4.6 mph - N/A   Overcast
6:59 AM 35.6 °F 32.8 °F 35.6 °F 100% 30.20 in 1.0 mi SE 3.5 mph - N/A   Overcast
7:19 AM 35.6 °F - 35.6 °F 100% 30.20 in 0.5 mi Calm Calm - N/A   Overcast
7:39 AM 35.6 °F - 33.8 °F 93% 30.22 in 0.2 mi Calm Calm - N/A   Overcast
7:59 AM 35.6 °F 32.8 °F 33.8 °F 93% 30.22 in 0.2 mi SE 3.5 mph - N/A   Overcast
8:19 AM 35.6 °F - 35.6 °F 100% 30.21 in 0.8 mi Calm Calm - N/A   Overcast
8:39 AM 37.4 °F 33.8 °F 35.6 °F 93% 30.20 in 1.2 mi East 4.6 mph - N/A   Overcast
8:59 AM 41.0 °F 38.0 °F 39.2 °F 93% 30.20 in 2.0 mi SE 4.6 mph - N/A   Overcast
9:19 AM 42.8 °F - 41.0 °F 93% 30.21 in 7.0 mi Calm Calm - N/A   Overcast
9:39 AM 46.4 °F 43.5 °F 44.6 °F 93% 30.21 in 7.0 mi South 5.8 mph - N/A   Overcast
9:59 AM 46.4 °F 43.5 °F 44.6 °F 93% 30.21 in 10.0 mi South 5.8 mph - N/A   Overcast
10:19 AM 50.0 °F - 46.4 °F 87% 30.21 in 10.0 mi South 8.1 mph - N/A   Overcast
10:59 AM 50.0 °F - 44.6 °F 82% 30.19 in 10.0 mi SSE 9.2 mph 16.1 mph N/A   Scattered Clouds
11:19 AM 51.8 °F - 44.6 °F 76% 30.18 in 10.0 mi South 9.2 mph 16.1 mph N/A   Clear
11:39 AM 53.6 °F - 46.4 °F 77% 30.18 in 10.0 mi South 9.2 mph 17.3 mph N/A   Clear
11:59 AM 53.6 °F - 44.6 °F 72% 30.18 in 10.0 mi South 9.2 mph 18.4 mph N/A   Clear
12:19 PM 53.6 °F - 44.6 °F 72% 30.18 in 10.0 mi South 9.2 mph - N/A   Clear
12:40 PM 55.4 °F - 44.6 °F 67% 30.17 in 10.0 mi South 10.4 mph 18.4 mph N/A   Clear
1:00 PM 55.4 °F - 46.4 °F 72% 30.17 in 10.0 mi South 11.5 mph - N/A   Clear
1:20 PM 55.4 °F - 46.4 °F 72% 30.15 in 10.0 mi SSE 9.2 mph 17.3 mph N/A   Clear
1:40 PM 55.4 °F - 46.4 °F 72% 30.14 in 10.0 mi South 9.2 mph - N/A   Clear
2:00 PM 59.0 °F - 46.4 °F 63% 30.13 in 10.0 mi South 10.4 mph 16.1 mph N/A   Clear
2:20 PM 57.2 °F - 44.6 °F 63% 30.12 in 10.0 mi South 9.2 mph 18.4 mph N/A   Clear
2:40 PM 59.0 °F - 46.4 °F 63% 30.11 in 10.0 mi South 11.5 mph 17.3 mph N/A   Clear
3:00 PM 59.0 °F - 46.4 °F 63% 30.10 in 10.0 mi SSE 10.4 mph 19.6 mph N/A   Clear
3:20 PM 59.0 °F - 46.4 °F 63% 30.10 in 10.0 mi SSE 11.5 mph 23.0 mph N/A   Clear
4:00 PM 59.0 °F - 46.4 °F 63% 30.09 in 10.0 mi SSE 13.8 mph 19.6 mph N/A   Clear
4:20 PM 59.0 °F - 46.4 °F 63% 30.08 in 10.0 mi SSE 12.7 mph 21.9 mph N/A   Clear
4:40 PM 59.0 °F - 46.4 °F 63% 30.07 in 10.0 mi SSE 12.7 mph 20.7 mph N/A   Clear
5:20 PM 59.0 °F - 46.4 °F 63% 30.06 in 10.0 mi SSE 11.5 mph 20.7 mph N/A   Clear
5:40 PM 59.0 °F - 46.4 °F 63% 30.05 in 10.0 mi SSE 12.7 mph 18.4 mph N/A   Clear
6:00 PM 59.0 °F - 46.4 °F 63% 30.05 in 10.0 mi SE 17.3 mph 23.0 mph N/A   Clear
6:20 PM 57.2 °F - 46.4 °F 67% 30.05 in 10.0 mi SSE 13.8 mph 25.3 mph N/A   Clear
6:40 PM 55.4 °F - 46.4 °F 72% 30.05 in 10.0 mi SSE 10.4 mph 18.4 mph N/A   Clear
7:00 PM 55.4 °F - 46.4 °F 72% 30.06 in 10.0 mi SSE 11.5 mph 19.6 mph N/A   Clear
7:20 PM 55.4 °F - 46.4 °F 72% 30.06 in 10.0 mi SSE 11.5 mph 18.4 mph N/A   Mostly Cloudy
7:40 PM 55.4 °F - 46.4 °F 72% 30.05 in 10.0 mi SSE 13.8 mph - N/A   Scattered Clouds
8:00 PM 55.4 °F - 46.4 °F 72% 30.04 in 10.0 mi SE 16.1 mph 21.9 mph N/A   Clear
8:20 PM 55.4 °F - 44.6 °F 67% 30.03 in 10.0 mi SSE 13.8 mph 25.3 mph N/A   Clear
8:41 PM 53.6 °F - 44.6 °F 72% 30.02 in 10.0 mi SSE 15.0 mph 19.6 mph N/A   Clear
10:01 PM 53.6 °F - 44.6 °F 72% 30.04 in 10.0 mi SSE 10.4 mph 18.4 mph N/A   Clear
10:21 PM 53.6 °F - 44.6 °F 72% 30.04 in 10.0 mi SSE 12.7 mph 19.6 mph N/A   Clear
10:41 PM 53.6 °F - 44.6 °F 72% 30.04 in 10.0 mi SSE 11.5 mph 18.4 mph N/A   Scattered Clouds
11:01 PM 53.6 °F - 44.6 °F 72% 30.04 in 10.0 mi SSE 12.7 mph 19.6 mph N/A   Overcast
11:21 PM 53.6 °F - 44.6 °F 72% 30.04 in 10.0 mi SSE 11.5 mph 17.3 mph N/A   Mostly Cloudy
11:41 PM 53.6 °F - 44.6 °F 72% 30.04 in 10.0 mi SSE 12.7 mph 20.7 mph N/A   Mostly Cloudy